Simultaneous Nadir Overpasses (SNOs) Predictions

Prediction of SNOs between GOES-16 and NOAA-20 Satellite Orbit:

Table of predicted SNOs for the next 14.0 days since TLE Epoch: 12/23/2023
Index Date Time (GOES-16) GOES-16 Lat,Lon NOAA-20 Lat,Lon Distance(km) Time Diff (sec)
1 12/23/2023 06:26:28 -0.02, -75.21 -0.09, -75.00 24.62 80
2 12/25/2023 18:26:59 0.01, -75.22 -0.08, -75.77 62.07 80
3 12/26/2023 18:10:53 0.01, -75.22 0.90, -71.23 455.19 80
4 12/28/2023 06:32:41 -0.01, -75.23 0.28, -76.49 144.53 80
5 12/29/2023 06:11:16 -0.00, -75.23 -0.76, -71.97 372.91 80
6 12/30/2023 18:33:11 0.00, -75.25 -0.44, -77.26 229.38 80
7 12/31/2023 18:17:06 0.00, -75.26 0.55, -72.73 288.75 80
8 01/02/2024 06:38:53 -0.01, -75.29 0.62, -77.99 309.16 80
9 01/03/2024 06:17:29 -0.01, -75.30 -0.43, -73.47 209.23 80
10 01/04/2024 18:39:24 0.01, -75.33 -0.75, -78.77 391.94 80
11 01/05/2024 18:23:19 0.00, -75.35 0.25, -74.23 126.96 80
